Ketchikan, AK

8:55 AM AKST on November 13, 2018 (GMT -0900)
Ketchikan International

Weather History for PAKT - June, 2018

Change the Weather History Date:

Tuesday, June 19, 2018

  Actual Average Record
Temperature  
Mean Temperature 70 °F -  
Max Temperature 80 °F 62 °F 84 °F (1958)
Min Temperature 62 °F 47 °F 36 °F (2008)
Cooling Degree Days 5    
Growing Degree Days 20 (Base 50)    
Moisture  
Dew Point 53 °F    
Average Humidity 57    
Maximum Humidity 72    
Minimum Humidity 36    
Precipitation  
Precipitation 0.00 in - - ()
Sea Level Pressure  
Sea Level Pressure 29.98 in    
Wind  
Wind Speed 11 mph (NW)    
Max Wind Speed 16 mph    
Max Gust Speed -    
Visibility 10 miles    
Events      
Averages and records for this station are not official NWS values.
T = Trace of Precipitation, MM = Missing Value Source: NWS Daily Summary

Daily Weather History Graph

Daily Weather History Graph

Search for Another Location

Airport or City:

Astronomy

Jun. 19, 2018 Rise Set
Actual Time 4:04 AM AKDT 9:32 PM AKDT
Civil Twilight 3:04 AM AKDT 10:31 PM AKDT
Nautical Twilight 1:20 AM AKDT 12:15 AM AKDT
Astronomical Twilight Sun does not rise Sun does not rise
Moon 11:44 AM AKDT (6/19) 12:55 AM AKDT (6/19)
Length of Visible Light 19h 26m
Length of Day
17h 27m
Waxing Crescent, 43% of the Moon is Illuminated
Jun 19
Waxing Crescent
Jun 20
First Quarter
Jun 27
Full
Jul 5
Last Quarter
Jul 12
New

Hourly Weather History & Observations

Time (AKDT) Temp. Dew Point Humidity Pressure Visibility Wind Dir Wind Speed Gust Speed Precip Events Conditions
12:53 AM 66.0 °F 54.0 °F 65% 30.03 in 10.0 mi NW 9.2 mph - N/A   Clear
1:53 AM 64.9 °F 54.0 °F 68% 30.03 in 10.0 mi NW 11.5 mph - N/A   Clear
2:53 AM 63.0 °F 54.0 °F 72% 30.03 in 10.0 mi NW 9.2 mph - N/A   Clear
3:53 AM 64.0 °F 54.0 °F 70% 30.03 in 10.0 mi NNW 10.4 mph - N/A   Clear
4:53 AM 64.0 °F 53.1 °F 67% 30.03 in 10.0 mi NW 9.2 mph - N/A   Clear
5:53 AM 64.9 °F 53.1 °F 65% 30.03 in 10.0 mi NNW 16.1 mph - N/A   Clear
6:53 AM 66.0 °F 54.0 °F 65% 30.02 in 10.0 mi North 12.7 mph - N/A   Clear
7:53 AM 68.0 °F 54.0 °F 61% 30.02 in 10.0 mi NNW 12.7 mph - N/A   Clear
8:53 AM 69.8 °F 53.6 °F 56% 30.01 in 10.0 mi NW 9.2 mph - N/A   Clear
9:53 AM 71.6 °F 53.6 °F 53% 30.00 in 10.0 mi NW 12.7 mph - N/A   Clear
10:53 AM 73.0 °F 54.0 °F 51% 29.99 in 10.0 mi NW 12.7 mph - N/A   Clear
11:53 AM 77.0 °F 51.8 °F 41% 29.98 in 10.0 mi NW 12.7 mph - N/A   Clear
12:53 PM 77.0 °F 51.8 °F 41% 29.97 in 10.0 mi NW 12.7 mph - N/A   Clear
1:53 PM 78.8 °F 51.8 °F 39% 29.96 in 10.0 mi NW 12.7 mph - N/A   Clear
2:53 PM 78.8 °F 51.8 °F 39% 29.95 in 10.0 mi NW 15.0 mph - N/A   Clear
3:53 PM 78.8 °F 50.0 °F 36% 29.94 in 10.0 mi NW 13.8 mph - N/A   Clear
4:53 PM 77.0 °F 50.0 °F 39% 29.93 in 10.0 mi NW 12.7 mph - N/A   Clear
5:53 PM 75.2 °F 50.0 °F 41% 29.92 in 10.0 mi WNW 6.9 mph - N/A   Clear
6:53 PM 70.0 °F 55.0 °F 59% 29.94 in 10.0 mi SE 9.2 mph - N/A   Clear
7:53 PM 66.2 °F 53.6 °F 64% 29.95 in 10.0 mi SSE 6.9 mph - N/A   Clear
8:53 PM 66.0 °F 54.0 °F 65% 29.95 in 10.0 mi SE 8.1 mph - N/A   Clear
9:53 PM 63.0 °F 53.1 °F 70% 29.96 in 10.0 mi SE 9.2 mph - N/A   Clear
10:53 PM 62.1 °F 53.1 °F 72% 29.96 in 10.0 mi SSE 9.2 mph - N/A   Clear
11:53 PM 62.1 °F 52.0 °F 70% 29.96 in 10.0 mi SE 10.4 mph - N/A   Clear